| time (UTC) | temp F | wind direction | speed MPH | gust MPH | rain 1hr in | rain 24hr in | rain mn in | humidity % | barometer mb |
| 20260902053214 | 54 | 191 | 4.0 | 9.0 | 0.00 | 0.00 | 0.00 | 99 | 1011.7 |
| 20260902052504 | 54 | 189 | 3.0 | 9.0 | 0.00 | 0.00 | 0.00 | 99 | 1011.8 |
| 20260902052003 | 54 | 180 | 3.0 | 6.0 | 0.00 | 0.00 | 0.00 | 99 | 1011.8 |
| 20260902051503 | 54 | 182 | 3.0 | 6.0 | 0.00 | 0.00 | 0.00 | 99 | 1011.7 |
| 20260902051003 | 54 | 182 | 3.0 | 6.0 | 0.00 | 0.00 | 0.00 | 98 | 1011.8 |
| 20260902050504 | 53 | 186 | 3.0 | 6.0 | 0.00 | 0.00 | 0.00 | 98 | 1011.9 |
| 20260902050214 | 53 | 190 | 3.0 | 6.0 | 0.00 | 0.00 | 0.00 | 98 | 1011.9 |
| 20260902045503 | 53 | 185 | 3.0 | 6.0 | 0.00 | 0.00 | 0.00 | 98 | 1011.9 |
| 20260902045003 | 53 | 184 | 3.0 | 5.0 | 0.00 | 0.00 | 0.00 | 98 | 1011.9 |
| 20260902044503 | 53 | 176 | 2.0 | 5.0 | 0.00 | 0.00 | 0.00 | 98 | 1011.8 |
| 20260902044214 | 53 | 165 | 2.0 | 4.0 | 0.00 | 0.00 | 0.00 | 98 | 1012.0 |
| 20260902043503 | 53 | 174 | 2.0 | 6.0 | 0.00 | 0.00 | 0.00 | 98 | 1011.8 |
| 20260902043214 | 53 | 179 | 3.0 | 6.0 | 0.00 | 0.00 | 0.00 | 98 | 1011.8 |
| 20260902042503 | 53 | 194 | 2.0 | 5.0 | 0.00 | 0.00 | 0.00 | 98 | 1011.9 |
| 20260902042004 | 53 | 183 | 2.0 | 6.0 | 0.00 | 0.00 | 0.00 | 98 | 1011.9 |
| 20260902041503 | 53 | 172 | 3.0 | 6.0 | 0.00 | 0.00 | 0.00 | 97 | 1012.1 |
| 20260902041003 | 53 | 176 | 3.0 | 6.0 | 0.00 | 0.00 | 0.00 | 97 | 1012.0 |
| 20260902040712 | 52 | 184 | 3.0 | 5.0 | 0.00 | 0.00 | 0.00 | 97 | 1012.2 |
| 20260902040003 | 52 | 184 | 2.0 | 5.0 | 0.00 | 0.00 | 0.00 | 97 | 1012.0 |
| 20260902035503 | 52 | 179 | 2.0 | 3.0 | 0.00 | 0.00 | 0.00 | 97 | 1012.2 |
| 20260902035004 | 52 | 175 | 2.0 | 3.0 | 0.00 | 0.00 | 0.00 | 97 | 1012.1 |
| 20260902034714 | 52 | 173 | 2.0 | 3.0 | 0.00 | 0.00 | 0.00 | 98 | 1012.1 |
| 20260902034213 | 52 | 172 | 2.0 | 3.0 | 0.00 | 0.00 | 0.00 | 98 | 1012.3 |
| 20260902033503 | 52 | 171 | 1.0 | 3.0 | 0.00 | 0.00 | 0.00 | 98 | 1012.2 |
| 20260902033003 | 52 | 162 | 1.0 | 3.0 | 0.00 | 0.00 | 0.00 | 98 | 1012.2 |
| 20260902032714 | 52 | 154 | 1.0 | 2.0 | 0.00 | 0.00 | 0.00 | 98 | 1012.1 |
| 20260902032003 | 52 | 161 | 1.0 | 4.0 | 0.00 | 0.00 | 0.00 | 98 | 1012.3 |
| 20260902031503 | 52 | 163 | 2.0 | 4.0 | 0.00 | 0.00 | 0.00 | 98 | 1012.3 |
| 20260902031003 | 51 | 153 | 1.0 | 4.0 | 0.00 | 0.00 | 0.00 | 98 | 1012.2 |
| 20260902030504 | 51 | 169 | 1.0 | 3.0 | 0.00 | 0.00 | 0.00 | 97 | 1012.3 |
| 20260902030003 | 52 | 181 | 1.0 | 3.0 | 0.00 | 0.00 | 0.00 | 97 | 1012.3 |
| 20260902025714 | 52 | 184 | 1.0 | 3.0 | 0.00 | 0.00 | 0.00 | 97 | 1012.4 |
| 20260902025003 | 52 | 171 | 1.0 | 3.0 | 0.00 | 0.00 | 0.00 | 97 | 1012.5 |
| 20260902024503 | 52 | 173 | 1.0 | 3.0 | 0.00 | 0.00 | 0.00 | 97 | 1012.6 |
| 20260902024003 | 52 | 200 | 1.0 | 4.0 | 0.00 | 0.00 | 0.00 | 97 | 1012.6 |
| 20260902023503 | 52 | 188 | 1.0 | 4.0 | 0.00 | 0.00 | 0.00 | 97 | 1012.5 |
| 20260902023003 | 52 | 181 | 1.0 | 4.0 | 0.00 | 0.00 | 0.00 | 97 | 1012.3 |
| 20260902022503 | 52 | 191 | 1.0 | 4.0 | 0.00 | 0.00 | 0.00 | 97 | 1012.4 |
| 20260902022003 | 52 | 187 | 1.0 | 3.0 | 0.00 | 0.00 | 0.00 | 96 | 1012.6 |
| 20260902021503 | 52 | 176 | 1.0 | 3.0 | 0.00 | 0.00 | 0.00 | 96 | 1012.4 |
| 20260902021003 | 52 | 173 | 1.0 | 3.0 | 0.00 | 0.00 | 0.00 | 96 | 1012.3 |
| 20260902020503 | 52 | 170 | 1.0 | 3.0 | 0.00 | 0.00 | 0.00 | 96 | 1012.4 |
| 20260902020003 | 52 | 171 | 1.0 | 4.0 | 0.00 | 0.00 | 0.00 | 96 | 1012.3 |
| 20260902015503 | 52 | 170 | 2.0 | 4.0 | 0.00 | 0.00 | 0.00 | 96 | 1012.2 |
| 20260902015003 | 53 | 169 | 2.0 | 4.0 | 0.00 | 0.00 | 0.00 | 95 | 1012.4 |
| 20260902014503 | 53 | 183 | 1.0 | 4.0 | 0.00 | 0.00 | 0.00 | 95 | 1012.4 |
| 20260902014003 | 53 | 192 | 1.0 | 4.0 | 0.00 | 0.00 | 0.00 | 95 | 1012.4 |
| 20260902013503 | 53 | 182 | 2.0 | 4.0 | 0.00 | 0.00 | 0.00 | 95 | 1012.4 |
| 20260902013003 | 53 | 183 | 2.0 | 3.0 | 0.00 | 0.00 | 0.00 | 95 | 1012.5 |
| 20260902012503 | 53 | 192 | 1.0 | 3.0 | 0.00 | 0.00 | 0.00 | 94 | 1012.5 |
| 20260902012214 | 53 | 183 | 1.0 | 3.0 | 0.00 | 0.00 | 0.00 | 94 | 1012.4 |
| 20260902011713 | 53 | 180 | 1.0 | 2.0 | 0.00 | 0.00 | 0.00 | 94 | 1012.5 |
| 20260902011003 | 54 | 182 | 1.0 | 3.0 | 0.00 | 0.00 | 0.00 | 93 | 1012.4 |
| 20260902010503 | 54 | 187 | 1.0 | 4.0 | 0.00 | 0.00 | 0.00 | 93 | 1012.5 |
| 20260902010003 | 54 | 184 | 2.0 | 4.0 | 0.00 | 0.00 | 0.00 | 93 | 1012.4 |
| 20260902005504 | 54 | 181 | 1.0 | 3.0 | 0.00 | 0.00 | 0.00 | 93 | 1012.4 |
| 20260902005214 | 54 | 178 | 1.0 | 4.0 | 0.00 | 0.00 | 0.00 | 93 | 1012.2 |
| 20260902004503 | 54 | 202 | 1.0 | 5.0 | 0.00 | 0.00 | 0.00 | 92 | 1012.4 |
| 20260902004003 | 55 | 206 | 2.0 | 5.0 | 0.00 | 0.00 | 0.00 | 92 | 1012.4 |
| 20260902003504 | 55 | 207 | 2.0 | 6.0 | 0.00 | 0.00 | 0.00 | 92 | 1012.4 |
| 20260902003004 | 55 | 198 | 2.0 | 6.0 | 0.00 | 0.00 | 0.00 | 91 | 1012.4 |
| 20260902002713 | 55 | 190 | 1.0 | 6.0 | 0.00 | 0.00 | 0.00 | 91 | 1012.4 |
| 20260902002003 | 55 | 198 | 2.0 | 7.0 | 0.00 | 0.00 | 0.00 | 91 | 1012.3 |
| 20260902001503 | 55 | 182 | 3.0 | 7.0 | 0.00 | 0.00 | 0.00 | 90 | 1012.3 |
| 20260902001214 | 55 | 190 | 3.0 | 7.0 | 0.00 | 0.00 | 0.00 | 90 | 1012.3 |
| 20260902000504 | 55 | 216 | 3.0 | 11.0 | 0.00 | 0.00 | 0.00 | 90 | 1012.4 |
| 20260902000003 | 55 | 219 | 3.0 | 11.0 | 0.00 | 0.00 | 0.00 | 90 | 1012.4 |
| 20260901235713 | 55 | 223 | 2.0 | 5.0 | 0.00 | 0.00 | 0.00 | 90 | 1012.5 |
| 20260901235003 | 56 | 210 | 2.0 | 5.0 | 0.00 | 0.00 | 0.00 | 90 | 1012.4 |
| 20260901234503 | 56 | 216 | 2.0 | 6.0 | 0.00 | 0.00 | 0.00 | 90 | 1012.5 |
| 20260901234004 | 56 | 220 | 2.0 | 6.0 | 0.00 | 0.00 | 0.00 | 90 | 1012.4 |
| 20260901233503 | 56 | 215 | 2.0 | 6.0 | 0.00 | 0.00 | 0.00 | 89 | 1012.6 |
| 20260901233003 | 56 | 224 | 2.0 | 5.0 | 0.00 | 0.00 | 0.00 | 89 | 1012.7 |
| 20260901232503 | 56 | 221 | 3.0 | 5.0 | 0.00 | 0.00 | 0.00 | 88 | 1012.4 |
| 20260901232003 | 56 | 217 | 3.0 | 6.0 | 0.00 | 0.00 | 0.00 | 89 | 1012.3 |
| 20260901231503 | 56 | 218 | 3.0 | 6.0 | 0.00 | 0.00 | 0.00 | 90 | 1012.4 |
| 20260901231214 | 56 | 222 | 2.0 | 6.0 | 0.00 | 0.00 | 0.00 | 90 | 1012.4 |
| 20260901230503 | 56 | 231 | 2.0 | 5.0 | 0.00 | 0.00 | 0.00 | 92 | 1012.5 |
| 20260901230004 | 56 | 223 | 2.0 | 5.0 | 0.00 | 0.00 | 0.00 | 92 | 1012.6 |
| 20260901225503 | 56 | 205 | 2.0 | 6.0 | 0.00 | 0.00 | 0.00 | 93 | 1012.3 |
| 20260901225003 | 56 | 202 | 2.0 | 6.0 | 0.00 | 0.00 | 0.00 | 94 | 1012.3 |
| 20260901224712 | 56 | 205 | 2.0 | 6.0 | 0.00 | 0.00 | 0.00 | 94 | 1012.4 |
| 20260901224213 | 56 | 200 | 3.0 | 6.0 | 0.00 | 0.00 | 0.00 | 95 | 1012.4 |
| 20260901223503 | 56 | 194 | 3.0 | 6.0 | 0.00 | 0.00 | 0.00 | 95 | 1012.3 |
| 20260901223213 | 56 | 193 | 3.0 | 6.0 | 0.00 | 0.00 | 0.00 | 95 | 1012.3 |
| 20260901222714 | 56 | 204 | 3.0 | 5.0 | 0.00 | 0.00 | 0.00 | 95 | 1012.3 |
| 20260901222213 | 56 | 208 | 2.0 | 5.0 | 0.00 | 0.00 | 0.00 | 95 | 1012.4 |
| 20260901221714 | 56 | 204 | 2.0 | 4.0 | 0.00 | 0.00 | 0.00 | 95 | 1012.3 |
| 20260901221003 | 56 | 194 | 3.0 | 5.0 | 0.00 | 0.00 | 0.00 | 95 | 1012.4 |
| 20260901220503 | 56 | 193 | 2.0 | 5.0 | 0.00 | 0.00 | 0.00 | 95 | 1012.3 |
| 20260901220004 | 56 | 186 | 2.0 | 4.0 | 0.00 | 0.00 | 0.00 | 95 | 1012.2 |
| 20260901215503 | 56 | 182 | 2.0 | 4.0 | 0.00 | 0.00 | 0.00 | 95 | 1012.2 |
| 20260901215003 | 56 | 190 | 2.0 | 4.0 | 0.00 | 0.00 | 0.00 | 95 | 1012.3 |
| 20260901214503 | 56 | 193 | 2.0 | 4.0 | 0.00 | 0.00 | 0.00 | 95 | 1012.3 |
| 20260901214213 | 56 | 191 | 2.0 | 4.0 | 0.00 | 0.00 | 0.00 | 95 | 1012.3 |
| 20260901213503 | 56 | 181 | 2.0 | 4.0 | 0.00 | 0.00 | 0.00 | 95 | 1012.2 |
| 20260901213003 | 55 | 174 | 2.0 | 4.0 | 0.00 | 0.00 | 0.00 | 94 | 1012.2 |
| 20260901212503 | 55 | 173 | 2.0 | 3.0 | 0.00 | 0.00 | 0.00 | 94 | 1012.3 |
| 20260901212213 | 55 | 174 | 2.0 | 5.0 | 0.00 | 0.00 | 0.00 | 94 | 1012.2 |
| 20260901211503 | 55 | 172 | 2.0 | 5.0 | 0.00 | 0.00 | 0.00 | 94 | 1012.3 |
| 20260901211215 | 55 | 174 | 2.0 | 5.0 | 0.00 | 0.00 | 0.00 | 94 | 1012.2 |
| 20260901210503 | 55 | 190 | 1.0 | 3.0 | 0.00 | 0.00 | 0.00 | 94 | 1012.2 |
| 20260901210003 | 56 | 190 | 2.0 | 4.0 | 0.00 | 0.00 | 0.00 | 94 | 1012.2 |
| 20260901205714 | 56 | 183 | 2.0 | 4.0 | 0.00 | 0.00 | 0.00 | 94 | 1012.1 |
| 20260901205003 | 56 | 173 | 2.0 | 3.0 | 0.00 | 0.00 | 0.00 | 94 | 1012.2 |
| 20260901204503 | 56 | 188 | 1.0 | 3.0 | 0.00 | 0.00 | 0.00 | 94 | 1012.1 |
| 20260901204003 | 55 | 192 | 1.0 | 3.0 | 0.00 | 0.00 | 0.00 | 94 | 1012.1 |
| 20260901203503 | 55 | 189 | 1.0 | 3.0 | 0.00 | 0.00 | 0.00 | 94 | 1012.2 |
| 20260901203213 | 55 | 203 | 1.0 | 3.0 | 0.00 | 0.00 | 0.00 | 94 | 1012.0 |
| 20260901202504 | 55 | 213 | 0.0 | 3.0 | 0.00 | 0.00 | 0.00 | 93 | 1012.2 |
| 20260901202003 | 55 | 206 | 0.0 | 2.0 | 0.00 | 0.00 | 0.00 | 92 | 1012.2 |
| 20260901201504 | 55 | 206 | 1.0 | 2.0 | 0.00 | 0.00 | 0.00 | 92 | 1012.1 |
| 20260901201003 | 56 | 208 | 1.0 | 2.0 | 0.00 | 0.00 | 0.00 | 92 | 1012.1 |
| 20260901200713 | 56 | 210 | 1.0 | 2.0 | 0.00 | 0.00 | 0.00 | 92 | 1012.2 |
| 20260901200004 | 56 | 232 | 1.0 | 3.0 | 0.00 | 0.00 | 0.00 | 91 | 1012.2 |
| 20260901195503 | 56 | 229 | 1.0 | 3.0 | 0.00 | 0.00 | 0.00 | 91 | 1012.2 |
| 20260901195003 | 56 | 218 | 2.0 | 3.0 | 0.00 | 0.00 | 0.00 | 91 | 1012.0 |
| 20260901194503 | 57 | 227 | 1.0 | 4.0 | 0.00 | 0.00 | 0.00 | 90 | 1012.0 |
| 20260901194214 | 57 | 228 | 1.0 | 4.0 | 0.00 | 0.00 | 0.00 | 90 | 1011.9 |
| 20260901193503 | 57 | 219 | 1.0 | 4.0 | 0.00 | 0.00 | 0.00 | 89 | 1012.0 |
| 20260901193003 | 57 | 216 | 1.0 | 4.0 | 0.00 | 0.00 | 0.00 | 89 | 1012.2 |
| 20260901192503 | 57 | 219 | 2.0 | 4.0 | 0.00 | 0.00 | 0.00 | 88 | 1012.0 |
| 20260901192003 | 57 | 218 | 2.0 | 4.0 | 0.00 | 0.00 | 0.00 | 88 | 1012.0 |
| 20260901191503 | 57 | 219 | 1.0 | 4.0 | 0.00 | 0.00 | 0.00 | 88 | 1012.2 |
| 20260901191214 | 57 | 226 | 1.0 | 3.0 | 0.00 | 0.00 | 0.00 | 87 | 1012.2 |
| 20260901190503 | 58 | 225 | 1.0 | 6.0 | 0.00 | 0.00 | 0.00 | 87 | 1012.3 |
| 20260901190214 | 58 | 220 | 1.0 | 6.0 | 0.00 | 0.00 | 0.00 | 86 | 1012.0 |
| 20260901185503 | 58 | 240 | 1.0 | 3.0 | 0.00 | 0.00 | 0.00 | 86 | 1012.0 |
| 20260901185003 | 58 | 250 | 1.0 | 4.0 | 0.00 | 0.00 | 0.00 | 86 | 1012.1 |
| 20260901184713 | 58 | 235 | 1.0 | 4.0 | 0.00 | 0.01 | 0.00 | 86 | 1012.1 |
| 20260901184214 | 58 | 233 | 1.0 | 4.0 | 0.00 | 0.03 | 0.00 | 85 | 1012.1 |
| 20260901183503 | 59 | 232 | 1.0 | 4.0 | 0.00 | 0.04 | 0.00 | 85 | 1011.8 |
| 20260901183004 | 59 | 212 | 2.0 | 4.0 | 0.00 | 0.04 | 0.00 | 85 | 1012.0 |
| 20260901182503 | 59 | 211 | 2.0 | 4.0 | 0.00 | 0.04 | 0.00 | 84 | 1011.9 |
| 20260901182003 | 59 | 232 | 2.0 | 4.0 | 0.00 | 0.04 | 0.00 | 84 | 1011.7 |
| 20260901181713 | 59 | 241 | 2.0 | 4.0 | 0.00 | 0.06 | 0.00 | 84 | 1011.6 |
| 20260901181003 | 60 | 226 | 2.0 | 6.0 | 0.00 | 0.06 | 0.00 | 84 | 1011.7 |
| 20260901180504 | 60 | 217 | 3.0 | 7.0 | 0.00 | 0.06 | 0.00 | 84 | 1011.6 |
| 20260901180214 | 60 | 212 | 3.0 | 7.0 | 0.00 | 0.06 | 0.00 | 85 | 1011.6 |
| 20260901175504 | 60 | 207 | 3.0 | 6.0 | 0.00 | 0.06 | 0.00 | 84 | 1011.5 |
| 20260901175004 | 60 | 208 | 3.0 | 6.0 | 0.00 | 0.06 | 0.00 | 85 | 1011.4 |
| 20260901174713 | 60 | 211 | 3.0 | 6.0 | 0.00 | 0.06 | 0.00 | 85 | 1011.4 |
| 20260901174003 | 61 | 216 | 2.0 | 6.0 | 0.00 | 0.06 | 0.00 | 84 | 1011.5 |
| 20260901173503 | 61 | 220 | 3.0 | 6.0 | 0.00 | 0.06 | 0.00 | 84 | 1011.3 |
| 20260901173003 | 61 | 214 | 3.0 | 7.0 | 0.00 | 0.06 | 0.00 | 84 | 1011.3 |
| 20260901172712 | 61 | 214 | 3.0 | 7.0 | 0.00 | 0.06 | 0.00 | 84 | 1011.4 |
| 20260901172004 | 61 | 209 | 3.0 | 5.0 | 0.00 | 0.06 | 0.00 | 83 | 1011.1 |
| 20260901171503 | 62 | 209 | 3.0 | 5.0 | 0.00 | 0.06 | 0.00 | 83 | 1011.4 |
| 20260901171003 | 62 | 211 | 3.0 | 6.0 | 0.00 | 0.06 | 0.00 | 83 | 1011.3 |
| 20260901170714 | 62 | 199 | 4.0 | 7.0 | 0.00 | 0.06 | 0.00 | 83 | 1011.2 |
| 20260901170213 | 62 | 199 | 3.0 | 7.0 | 0.00 | 0.06 | 0.00 | 83 | 1011.5 |
| 20260901165503 | 62 | 212 | 2.0 | 6.0 | 0.00 | 0.06 | 0.00 | 82 | 1011.3 |
| 20260901165213 | 62 | 214 | 2.0 | 6.0 | 0.00 | 0.06 | 0.00 | 81 | 1011.3 |
| 20260901164503 | 62 | 220 | 2.0 | 6.0 | 0.00 | 0.06 | 0.00 | 80 | 1011.2 |
| 20260901164003 | 62 | 226 | 2.0 | 6.0 | 0.00 | 0.06 | 0.00 | 78 | 1011.2 |
| 20260901163714 | 62 | 229 | 2.0 | 5.0 | 0.00 | 0.06 | 0.00 | 78 | 1011.1 |
| 20260901163213 | 63 | 221 | 2.0 | 5.0 | 0.00 | 0.06 | 0.00 | 77 | 1011.2 |
| 20260901162503 | 63 | 204 | 3.0 | 9.0 | 0.00 | 0.06 | 0.00 | 76 | 1011.2 |
| 20260901162003 | 63 | 202 | 3.0 | 9.0 | 0.00 | 0.06 | 0.00 | 75 | 1011.3 |
| 20260901161714 | 63 | 213 | 2.0 | 9.0 | 0.00 | 0.06 | 0.00 | 74 | 1011.3 |
| 20260901161003 | 63 | 225 | 1.0 | 4.0 | 0.00 | 0.06 | 0.00 | 75 | 1011.1 |
| 20260901160503 | 63 | 224 | 1.0 | 6.0 | 0.00 | 0.06 | 0.00 | 74 | 1011.1 |
| 20260901160003 | 63 | 235 | 2.0 | 9.0 | 0.00 | 0.06 | 0.00 | 74 | 1010.9 |
| 20260901155714 | 63 | 232 | 3.0 | 9.0 | 0.00 | 0.06 | 0.00 | 74 | 1011.1 |
| 20260901155003 | 64 | 216 | 4.0 | 9.0 | 0.00 | 0.06 | 0.00 | 73 | 1011.0 |
| 20260901154504 | 64 | 214 | 5.0 | 9.0 | 0.00 | 0.06 | 0.00 | 72 | 1010.9 |
| 20260901154003 | 64 | 211 | 4.0 | 8.0 | 0.00 | 0.06 | 0.00 | 71 | 1010.9 |
| 20260901153504 | 65 | 207 | 3.0 | 8.0 | 0.00 | 0.06 | 0.00 | 70 | 1010.9 |
| 20260901153004 | 65 | 220 | 3.0 | 7.0 | 0.00 | 0.06 | 0.00 | 73 | 1010.8 |
| 20260901152503 | 64 | 220 | 3.0 | 7.0 | 0.00 | 0.06 | 0.00 | 72 | 1010.9 |
| 20260901152213 | 64 | 206 | 3.0 | 11.0 | 0.00 | 0.06 | 0.00 | 73 | 1011.0 |
| 20260901151503 | 65 | 200 | 4.0 | 11.0 | 0.00 | 0.06 | 0.00 | 72 | 1010.8 |
| 20260901151003 | 64 | 221 | 3.0 | 8.0 | 0.00 | 0.06 | 0.00 | 73 | 1010.9 |
| 20260901150503 | 65 | 223 | 3.0 | 9.0 | 0.00 | 0.06 | 0.00 | 73 | 1011.0 |
| 20260901150004 | 65 | 233 | 2.0 | 9.0 | 0.00 | 0.06 | 0.00 | 72 | 1010.7 |
| 20260901145504 | 65 | 239 | 2.0 | 9.0 | 0.00 | 0.06 | 0.00 | 70 | 1011.0 |
| 20260901145004 | 65 | 238 | 3.0 | 6.0 | 0.00 | 0.06 | 0.00 | 71 | 1010.8 |
| 20260901144503 | 65 | 208 | 4.0 | 12.0 | 0.00 | 0.06 | 0.00 | 70 | 1010.8 |
| 20260901144003 | 65 | 198 | 4.0 | 12.0 | 0.00 | 0.06 | 0.00 | 69 | 1010.6 |
| 20260901143713 | 66 | 204 | 5.0 | 12.0 | 0.00 | 0.06 | 0.00 | 69 | 1010.8 |
| 20260901143214 | 66 | 213 | 4.0 | 11.0 | 0.00 | 0.06 | 0.00 | 70 | 1010.7 |
| 20260901142713 | 66 | 215 | 3.0 | 10.0 | 0.00 | 0.06 | 0.00 | 70 | 1010.6 |
| 20260901142003 | 67 | 210 | 4.0 | 10.0 | 0.00 | 0.06 | 0.00 | 69 | 1010.6 |
| 20260901141503 | 67 | 217 | 4.0 | 10.0 | 0.00 | 0.06 | 0.00 | 70 | 1010.8 |
| 20260901141003 | 66 | 211 | 4.0 | 10.0 | 0.00 | 0.06 | 0.00 | 70 | 1010.7 |
| 20260901140503 | 67 | 204 | 5.0 | 10.0 | 0.00 | 0.06 | 0.00 | 69 | 1010.6 |
| 20260901140003 | 67 | 210 | 4.0 | 10.0 | 0.00 | 0.06 | 0.00 | 68 | 1010.6 |
| 20260901135503 | 67 | 229 | 3.0 | 7.0 | 0.00 | 0.06 | 0.00 | 69 | 1010.9 |
| 20260901135003 | 67 | 240 | 3.0 | 7.0 | 0.00 | 0.06 | 0.00 | 68 | 1010.8 |
| 20260901134504 | 66 | 241 | 3.0 | 7.0 | 0.00 | 0.06 | 0.00 | 68 | 1010.8 |
| 20260901134214 | 68 | 241 | 3.0 | 7.0 | 0.00 | 0.06 | 0.00 | 68 | 1010.3 |
| 20260901133713 | 67 | 240 | 2.0 | 5.0 | 0.00 | 0.06 | 0.00 | 68 | 1010.8 |
| 20260901133003 | 67 | 226 | 3.0 | 7.0 | 0.00 | 0.06 | 0.00 | 68 | 1010.5 |
| 20260901132504 | 66 | 228 | 3.0 | 11.0 | 0.00 | 0.06 | 0.00 | 69 | 1010.6 |
| 20260901132003 | 66 | 215 | 4.0 | 11.0 | 0.00 | 0.06 | 0.00 | 69 | 1010.6 |
| 20260901131503 | 67 | 222 | 4.0 | 11.0 | 0.00 | 0.06 | 0.00 | 69 | 1010.8 |
| 20260901131003 | 66 | 238 | 4.0 | 9.0 | 0.00 | 0.06 | 0.00 | 69 | 1010.7 |
| 20260901130503 | 66 | 238 | 4.0 | 9.0 | 0.00 | 0.06 | 0.00 | 67 | 1010.7 |
| 20260901130214 | 67 | 230 | 4.0 | 8.0 | 0.00 | 0.06 | 0.00 | 69 | 1010.7 |
| 20260901125503 | 68 | 222 | 3.0 | 8.0 | 0.00 | 0.06 | 0.00 | 68 | 1010.6 |
| 20260901125003 | 67 | 231 | 3.0 | 6.0 | 0.00 | 0.06 | 0.00 | 70 | 1010.6 |
| 20260901124715 | 66 | 237 | 3.0 | 6.0 | 0.00 | 0.06 | 0.00 | 69 | 1010.6 |
| 20260901124214 | 67 | 218 | 4.0 | 6.0 | 0.00 | 0.06 | 0.00 | 68 | 1010.5 |
| 20260901123503 | 65 | 208 | 4.0 | 10.0 | 0.00 | 0.06 | 0.00 | 72 | 1010.6 |
| 20260901123003 | 66 | 212 | 3.0 | 10.0 | 0.00 | 0.06 | 0.00 | 69 | 1010.7 |
| 20260901122504 | 67 | 234 | 3.0 | 6.0 | 0.00 | 0.06 | 0.00 | 69 | 1010.6 |
| 20260901122003 | 67 | 247 | 3.0 | 6.0 | 0.00 | 0.06 | 0.00 | 69 | 1010.5 |
| 20260901121715 | 67 | 248 | 3.0 | 6.0 | 0.00 | 0.06 | 0.00 | 68 | 1010.5 |
| 20260901121213 | 66 | 241 | 3.0 | 6.0 | 0.00 | 0.06 | 0.00 | 68 | 1010.7 |
| 20260901120503 | 66 | 245 | 2.0 | 6.0 | 0.00 | 0.06 | 0.00 | 68 | 1010.6 |
| 20260901120004 | 67 | 223 | 3.0 | 7.0 | 0.00 | 0.06 | 0.00 | 72 | 1010.3 |
| 20260901115503 | 66 | 205 | 4.0 | 7.0 | 0.00 | 0.06 | 0.00 | 74 | 1010.5 |
| 20260901115003 | 65 | 195 | 3.0 | 7.0 | 0.00 | 0.06 | 0.00 | 73 | 1010.5 |
| 20260901114503 | 65 | 192 | 3.0 | 8.0 | 0.00 | 0.06 | 0.00 | 74 | 1010.2 |
| 20260901114213 | 64 | 209 | 3.0 | 8.0 | 0.00 | 0.06 | 0.00 | 76 | 1010.5 |
| 20260901113503 | 65 | 234 | 3.0 | 8.0 | 0.00 | 0.06 | 0.00 | 75 | 1010.3 |
| 20260901113004 | 64 | 222 | 3.0 | 6.0 | 0.00 | 0.06 | 0.00 | 77 | 1010.5 |
| 20260901112503 | 64 | 227 | 3.0 | 6.0 | 0.00 | 0.06 | 0.00 | 77 | 1010.2 |
| 20260901112003 | 64 | 245 | 2.0 | 4.0 | 0.00 | 0.06 | 0.00 | 78 | 1010.3 |
| 20260901111714 | 64 | 234 | 2.0 | 4.0 | 0.00 | 0.06 | 0.00 | 76 | 1010.3 |
| 20260901111213 | 64 | 232 | 2.0 | 6.0 | 0.00 | 0.06 | 0.00 | 78 | 1010.3 |
| 20260901110503 | 63 | 226 | 3.0 | 6.0 | 0.00 | 0.06 | 0.00 | 78 | 1010.3 |
| 20260901110003 | 63 | 218 | 2.0 | 5.0 | 0.00 | 0.06 | 0.00 | 79 | 1010.2 |
| 20260901105714 | 63 | 210 | 2.0 | 5.0 | 0.00 | 0.06 | 0.00 | 81 | 1010.2 |
| 20260901105003 | 63 | 232 | 2.0 | 4.0 | 0.00 | 0.06 | 0.00 | 80 | 1010.3 |
| 20260901104503 | 62 | 245 | 2.0 | 4.0 | 0.00 | 0.06 | 0.00 | 84 | 1010.1 |
| 20260901104213 | 62 | 270 | 2.0 | 4.0 | 0.00 | 0.06 | 0.00 | 85 | 1010.1 |
| 20260901103714 | 62 | 294 | 2.0 | 4.0 | 0.00 | 0.06 | 0.00 | 84 | 1010.0 |
| 20260901103003 | 63 | 276 | 1.0 | 3.0 | 0.00 | 0.06 | 0.00 | 84 | 1010.1 |
| 20260901102503 | 62 | 291 | 2.0 | 5.0 | 0.00 | 0.06 | 0.00 | 84 | 1010.1 |
| 20260901102003 | 62 | 307 | 3.0 | 5.0 | 0.00 | 0.06 | 0.00 | 85 | 1010.0 |
| 20260901101503 | 61 | 286 | 2.0 | 5.0 | 0.00 | 0.06 | 0.00 | 85 | 1010.0 |
| 20260901101003 | 62 | 226 | 1.0 | 3.0 | 0.00 | 0.06 | 0.00 | 85 | 1009.8 |
| 20260901100503 | 63 | 213 | 1.0 | 4.0 | 0.00 | 0.06 | 0.00 | 85 | 1009.7 |
| 20260901100003 | 63 | 212 | 2.0 | 4.0 | 0.00 | 0.06 | 0.00 | 83 | 1009.7 |
| 20260901095503 | 63 | 229 | 2.0 | 4.0 | 0.00 | 0.06 | 0.00 | 84 | 1009.8 |
| 20260901095004 | 63 | 248 | 1.0 | 4.0 | 0.00 | 0.06 | 0.00 | 84 | 1009.7 |
| 20260901094714 | 62 | 233 | 1.0 | 4.0 | 0.00 | 0.06 | 0.00 | 84 | 1009.8 |
| 20260901094003 | 63 | 211 | 2.0 | 5.0 | 0.00 | 0.06 | 0.00 | 86 | 1009.7 |
| 20260901093503 | 62 | 208 | 2.0 | 5.0 | 0.00 | 0.06 | 0.00 | 86 | 1009.7 |
| 20260901093003 | 63 | 208 | 2.0 | 5.0 | 0.00 | 0.06 | 0.00 | 85 | 1009.7 |
| 20260901092713 | 62 | 225 | 2.0 | 5.0 | 0.00 | 0.06 | 0.00 | 84 | 1009.6 |
| 20260901092003 | 61 | 212 | 2.0 | 5.0 | 0.00 | 0.06 | 0.00 | 86 | 1009.5 |
| 20260901091713 | 61 | 210 | 2.0 | 5.0 | 0.00 | 0.06 | 0.00 | 87 | 1009.6 |
| 20260901091214 | 60 | 229 | 2.0 | 4.0 | 0.00 | 0.06 | 0.00 | 90 | 1009.7 |
| 20260901090713 | 60 | 219 | 2.0 | 4.0 | 0.00 | 0.06 | 0.00 | 90 | 1009.6 |
| 20260901090003 | 61 | 200 | 1.0 | 4.0 | 0.00 | 0.06 | 0.00 | 91 | 1009.4 |
| 20260901085503 | 60 | 219 | 1.0 | 4.0 | 0.00 | 0.06 | 0.00 | 90 | 1009.3 |
| 20260901085004 | 60 | 242 | 1.0 | 4.0 | 0.00 | 0.06 | 0.00 | 91 | 1009.4 |
| 20260901084503 | 60 | 240 | 1.0 | 3.0 | 0.00 | 0.06 | 0.00 | 90 | 1009.4 |
| 20260901084214 | 60 | 237 | 1.0 | 3.0 | 0.00 | 0.06 | 0.00 | 91 | 1009.3 |
| 20260901083503 | 60 | 235 | 2.0 | 3.0 | 0.00 | 0.06 | 0.00 | 91 | 1009.2 |
| 20260901083214 | 60 | 244 | 1.0 | 4.0 | 0.00 | 0.06 | 0.00 | 90 | 1009.2 |
| 20260901082713 | 60 | 260 | 1.0 | 4.0 | 0.00 | 0.06 | 0.00 | 90 | 1009.1 |
| 20260901082004 | 60 | 235 | 1.0 | 4.0 | 0.00 | 0.06 | 0.00 | 90 | 1009.1 |
| 20260901081503 | 59 | 220 | 1.0 | 4.0 | 0.00 | 0.06 | 0.00 | 92 | 1009.0 |
| 20260901081003 | 59 | 250 | 2.0 | 4.0 | 0.00 | 0.06 | 0.00 | 93 | 1009.1 |
| 20260901080713 | 59 | 257 | 1.0 | 4.0 | 0.00 | 0.06 | 0.00 | 94 | 1009.1 |
| 20260901080214 | 59 | 266 | 2.0 | 3.0 | 0.00 | 0.06 | 0.00 | 93 | 1009.0 |
| 20260901075504 | 58 | 258 | 1.0 | 3.0 | 0.00 | 0.06 | 0.00 | 94 | 1009.0 |
| 20260901075214 | 59 | 254 | 1.0 | 3.0 | 0.00 | 0.06 | 0.00 | 95 | 1009.1 |
| 20260901074713 | 58 | 274 | 1.0 | 3.0 | 0.00 | 0.06 | 0.00 | 96 | 1009.2 |
| 20260901074003 | 58 | 256 | 1.0 | 3.0 | 0.00 | 0.06 | 0.00 | 96 | 1009.1 |
| 20260901073713 | 58 | 256 | 1.0 | 3.0 | 0.00 | 0.06 | 0.00 | 97 | 1009.1 |
| 20260901073003 | 59 | 262 | 1.0 | 2.0 | 0.00 | 0.06 | 0.00 | 98 | 1009.0 |
| 20260901072504 | 58 | 252 | 1.0 | 3.0 | 0.00 | 0.06 | 0.00 | 98 | 1009.1 |
| 20260901072214 | 58 | 230 | 1.0 | 3.0 | 0.00 | 0.06 | 0.00 | 98 | 1008.9 |
| 20260901071713 | 58 | 229 | 1.0 | 3.0 | 0.00 | 0.06 | 0.00 | 99 | 1008.8 |
| 20260901071003 | 58 | 234 | 0.0 | 2.0 | 0.00 | 0.06 | 0.00 | 99 | 1008.9 |
| 20260901070504 | 58 | 228 | 0.0 | 3.0 | 0.00 | 0.06 | 0.00 | 99 | 1008.9 |
| 20260901070003 | 58 | 226 | 1.0 | 4.0 | 0.00 | 0.06 | 0.00 | 99 | 1008.8 |
| 20260901065714 | 58 | 226 | 1.0 | 4.0 | 0.00 | 0.06 | 0.00 | 99 | 1008.7 |
| 20260901065213 | 57 | 226 | 2.0 | 4.0 | 0.00 | 0.06 | 0.00 | 99 | 1008.8 |
| 20260901064504 | 57 | 242 | 1.0 | 4.0 | 0.00 | 0.06 | 0.00 | 99 | 1008.6 |
| 20260901064003 | 57 | 233 | 0.0 | 2.0 | 0.00 | 0.06 | 0.00 | 99 | 1008.6 |
| 20260901063503 | 57 | 215 | 1.0 | 3.0 | 0.00 | 0.06 | 0.00 | 99 | 1008.6 |
| 20260901063003 | 57 | 215 | 1.0 | 4.0 | 0.00 | 0.06 | 0.00 | 99 | 1008.5 |
| 20260901062503 | 57 | 214 | 1.0 | 5.0 | 0.00 | 0.06 | 0.00 | 99 | 1008.4 |
| 20260901062003 | 57 | 176 | 1.0 | 5.0 | 0.00 | 0.06 | 0.00 | 99 | 1008.4 |
| 20260901061714 | 57 | 158 | 1.0 | 5.0 | 0.00 | 0.06 | 0.00 | 99 | 1008.3 |
| 20260901061213 | 57 | 214 | 1.0 | 4.0 | 0.00 | 0.06 | 0.00 | 99 | 1008.5 |
| 20260901060503 | 57 | 192 | 1.0 | 4.0 | 0.00 | 0.06 | 0.00 | 99 | 1008.3 |
| 20260901060213 | 57 | 199 | 1.0 | 4.0 | 0.00 | 0.06 | 0.00 | 99 | 1008.3 |
| 20260901055714 | 57 | 189 | 2.0 | 4.0 | 0.00 | 0.06 | 0.00 | 99 | 1008.1 |
| 20260901055003 | 57 | 186 | 2.0 | 5.0 | 0.00 | 0.06 | 0.00 | 99 | 1008.3 |
| 20260901054504 | 57 | 185 | 1.0 | 5.0 | 0.00 | 0.06 | 0.00 | 99 | 1008.1 |
| 20260901054003 | 57 | 211 | 1.0 | 5.0 | 0.00 | 0.06 | 0.00 | 99 | 1008.4 |
| 20260901053714 | 57 | 224 | 1.0 | 5.0 | 0.00 | 0.06 | 0.00 | 99 | 1008.2 |